| time (UTC) | temp C | wind direction | speed KPH | gust KPH | rain 1hr cm | rain 24hr cm | rain mn cm | humidity % | barometer mb |
| 20260507145847 | 14 | 70 | 9.7 | 0.0 | 0.00 | 0.00 | 0.00 | 76 | 1017.0 |
| 20260507144846 | 15 | 70 | 9.7 | 0.0 | 0.00 | 0.00 | 0.00 | 77 | 1017.0 |
| 20260507143845 | 15 | 70 | 9.7 | 0.0 | 0.00 | 0.00 | 0.00 | 82 | 1017.0 |
| 20260507142845 | 13 | 70 | 9.7 | 0.0 | 0.00 | 0.00 | 0.00 | 82 | 1018.0 |
| 20260507141844 | 13 | 70 | 9.7 | 0.0 | 0.00 | 0.00 | 0.00 | 82 | 1018.0 |
| 20260507140843 | 13 | 70 | 9.7 | 0.0 | 0.00 | 0.00 | 0.00 | 84 | 1018.0 |
| 20260507135843 | 13 | 70 | 12.9 | 0.0 | 0.00 | 0.00 | 0.00 | 87 | 1018.0 |
| 20260507134843 | 13 | 70 | 12.9 | 0.0 | 0.00 | 0.00 | 0.00 | 87 | 1018.0 |
| 20260507133842 | 13 | 70 | 12.9 | 0.0 | 0.00 | 0.00 | 0.00 | 88 | 1018.0 |
| 20260507132841 | 13 | 0 | 6.4 | 0.0 | 0.00 | 0.00 | 0.00 | 94 | 1019.0 |
| 20260507131841 | 12 | 0 | 6.4 | 0.0 | 0.00 | 0.00 | 0.00 | 94 | 1019.0 |
| 20260507130841 | 12 | 0 | 6.4 | 0.0 | 0.00 | 0.00 | 0.00 | 94 | 1019.0 |
| 20260507125840 | 12 | 50 | 6.4 | 0.0 | 0.00 | 0.00 | 0.00 | 97 | 1019.0 |
| 20260507124839 | 12 | 50 | 6.4 | 0.0 | 0.00 | 0.00 | 0.00 | 97 | 1019.0 |
| 20260507123839 | 10 | 70 | 4.8 | 0.0 | 0.00 | 0.00 | 0.00 | 97 | 1019.0 |
| 20260507122838 | 8 | 70 | 4.8 | 0.0 | 0.00 | 0.00 | 0.00 | 97 | 1020.0 |
| 20260507121838 | 8 | 70 | 4.8 | 0.0 | 0.00 | 0.00 | 0.00 | 97 | 1020.0 |
| 20260507120837 | 8 | 70 | 4.8 | 0.0 | 0.00 | 0.00 | 0.00 | 98 | 1020.0 |
| 20260507115837 | 8 | 0 | 4.8 | 0.0 | 0.00 | 0.00 | 0.00 | 98 | 1020.0 |
| 20260507114836 | 8 | 0 | 4.8 | 0.0 | 0.00 | 0.00 | 0.00 | 98 | 1020.0 |
| 20260507113836 | 8 | 0 | 4.8 | 0.0 | 0.00 | 0.00 | 0.00 | 97 | 1020.0 |
| 20260507112835 | 8 | 0 | 4.8 | 0.0 | 0.00 | 0.00 | 0.00 | 97 | 1020.0 |
| 20260507111835 | 8 | 0 | 4.8 | 0.0 | 0.00 | 0.00 | 0.00 | 97 | 1020.0 |
| 20260507110834 | 8 | 70 | 6.4 | 0.0 | 0.00 | 0.00 | 0.00 | 96 | 1020.0 |
| 20260507105833 | 8 | 70 | 6.4 | 0.0 | 0.00 | 0.00 | 0.00 | 96 | 1021.0 |
| 20260507104833 | 8 | 70 | 6.4 | 0.0 | 0.00 | 0.00 | 0.00 | 95 | 1021.0 |
| 20260507103832 | 8 | 70 | 6.4 | 0.0 | 0.00 | 0.00 | 0.00 | 95 | 1021.0 |
| 20260507102832 | 8 | 80 | 4.8 | 0.0 | 0.00 | 0.00 | 0.00 | 94 | 1020.0 |
| 20260507101831 | 8 | 80 | 4.8 | 0.0 | 0.00 | 0.00 | 0.00 | 94 | 1020.0 |
| 20260507100831 | 8 | 80 | 4.8 | 0.0 | 0.00 | 0.00 | 0.00 | 92 | 1020.0 |
| 20260507095830 | 8 | 102 | 4.8 | 3.2 | 0.00 | 0.00 | 0.00 | 91 | 1020.0 |
| 20260507094829 | 8 | 102 | 4.8 | 3.2 | 0.00 | 0.00 | 0.00 | 91 | 1020.0 |
| 20260507093829 | 8 | 102 | 4.8 | 3.2 | 0.00 | 0.00 | 0.00 | 91 | 1020.0 |
| 20260507092828 | 8 | 101 | 4.8 | 3.2 | 0.00 | 0.00 | 0.00 | 91 | 1020.0 |
| 20260507091828 | 10 | 0 | 4.8 | 0.0 | 0.00 | 0.00 | 0.00 | 94 | 1020.0 |
| 20260507090827 | 10 | 0 | 4.8 | 0.0 | 0.00 | 0.00 | 0.00 | 94 | 1020.0 |
| 20260507085827 | 10 | 350 | 4.8 | 0.0 | 0.00 | 0.00 | 0.00 | 93 | 1020.0 |
| 20260507084826 | 10 | 350 | 4.8 | 0.0 | 0.00 | 0.00 | 0.00 | 93 | 1020.0 |
| 20260507083826 | 10 | 350 | 4.8 | 0.0 | 0.00 | 0.00 | 0.00 | 92 | 1020.0 |
| 20260507082825 | 9 | 350 | 4.8 | 0.0 | 0.00 | 0.00 | 0.00 | 92 | 1020.0 |
| 20260507081824 | 9 | 350 | 4.8 | 0.0 | 0.00 | 0.00 | 0.00 | 92 | 1020.0 |
| 20260507080824 | 9 | 0 | 3.2 | 0.0 | 0.00 | 0.00 | 0.00 | 92 | 1021.0 |
| 20260507075823 | 9 | 0 | 3.2 | 0.0 | 0.00 | 0.00 | 0.00 | 92 | 1021.0 |
| 20260507074823 | 9 | 0 | 3.2 | 0.0 | 0.00 | 0.00 | 0.00 | 92 | 1021.0 |
| 20260507073822 | 9 | 0 | 3.2 | 0.0 | 0.00 | 0.00 | 0.00 | 92 | 1021.0 |
| 20260507072822 | 9 | 0 | 3.2 | 0.0 | 0.00 | 0.00 | 0.00 | 92 | 1021.0 |
| 20260507071821 | 9 | 0 | 3.2 | 0.0 | 0.00 | 0.00 | 0.00 | 92 | 1021.0 |
| 20260507070821 | 9 | 0 | 3.2 | 0.0 | 0.00 | 0.00 | 0.00 | 92 | 1021.0 |
| 20260507065820 | 10 | 60 | 6.4 | 0.0 | 0.00 | 0.00 | 0.00 | 92 | 1021.0 |
| 20260507064819 | 10 | 60 | 6.4 | 0.0 | 0.00 | 0.00 | 0.00 | 94 | 1021.0 |
| 20260507063819 | 10 | 60 | 6.4 | 0.0 | 0.00 | 0.00 | 0.00 | 94 | 1021.0 |
| 20260507062818 | 10 | 60 | 6.4 | 0.0 | 0.00 | 0.00 | 0.00 | 90 | 1021.0 |
| 20260507061818 | 10 | 60 | 6.4 | 0.0 | 0.00 | 0.00 | 0.00 | 90 | 1021.0 |
| 20260507060817 | 10 | 60 | 6.4 | 0.0 | 0.00 | 0.00 | 0.00 | 89 | 1021.0 |
| 20260507055817 | 10 | 40 | 3.2 | 0.0 | 0.00 | 0.00 | 0.00 | 89 | 1021.0 |
| 20260507054816 | 10 | 40 | 3.2 | 0.0 | 0.00 | 0.00 | 0.00 | 88 | 1021.0 |
| 20260507053815 | 10 | 40 | 3.2 | 0.0 | 0.00 | 0.00 | 0.00 | 88 | 1022.0 |
| 20260507052815 | 10 | 40 | 3.2 | 0.0 | 0.00 | 0.00 | 0.00 | 87 | 1022.0 |
| 20260507051814 | 10 | 40 | 3.2 | 0.0 | 0.00 | 0.00 | 0.00 | 87 | 1022.0 |
| 20260507050814 | 10 | 40 | 3.2 | 0.0 | 0.00 | 0.00 | 0.00 | 86 | 1022.0 |
| 20260507045813 | 10 | 20 | 4.8 | 0.0 | 0.00 | 0.00 | 0.00 | 85 | 1022.0 |
| 20260507044812 | 10 | 20 | 4.8 | 0.0 | 0.00 | 0.00 | 0.00 | 84 | 1022.0 |
| 20260507043812 | 10 | 20 | 4.8 | 0.0 | 0.00 | 0.00 | 0.00 | 81 | 1022.0 |
| 20260507042811 | 10 | 20 | 4.8 | 0.0 | 0.00 | 0.00 | 0.00 | 81 | 1022.0 |
| 20260507041811 | 10 | 20 | 4.8 | 0.0 | 0.00 | 0.00 | 0.00 | 80 | 1022.0 |
| 20260507040810 | 10 | 20 | 4.8 | 0.0 | 0.00 | 0.00 | 0.00 | 84 | 1022.0 |
| 20260507035809 | 11 | 70 | 6.4 | 0.0 | 0.00 | 0.00 | 0.00 | 71 | 1022.0 |
| 20260507034809 | 11 | 70 | 6.4 | 0.0 | 0.00 | 0.00 | 0.00 | 71 | 1022.0 |
| 20260507033808 | 11 | 70 | 6.4 | 0.0 | 0.00 | 0.00 | 0.00 | 71 | 1022.0 |
| 20260507032808 | 11 | 70 | 6.4 | 0.0 | 0.00 | 0.00 | 0.00 | 71 | 1022.0 |
| 20260507031807 | 11 | 70 | 6.4 | 0.0 | 0.00 | 0.00 | 0.00 | 71 | 1022.0 |
| 20260507030807 | 11 | 70 | 6.4 | 0.0 | 0.00 | 0.00 | 0.00 | 71 | 1022.0 |
| 20260507025806 | 13 | 110 | 6.4 | 0.0 | 0.00 | 0.00 | 0.00 | 58 | 1022.0 |
| 20260507024806 | 13 | 110 | 6.4 | 0.0 | 0.00 | 0.00 | 0.00 | 58 | 1022.0 |
| 20260507023805 | 13 | 110 | 6.4 | 0.0 | 0.00 | 0.00 | 0.00 | 58 | 1022.0 |
| 20260507022804 | 13 | 110 | 6.4 | 0.0 | 0.00 | 0.00 | 0.00 | 58 | 1021.0 |
| 20260507021804 | 13 | 110 | 6.4 | 0.0 | 0.00 | 0.00 | 0.00 | 58 | 1021.0 |
| 20260507020803 | 13 | 110 | 6.4 | 0.0 | 0.00 | 0.00 | 0.00 | 58 | 1021.0 |
| 20260507015803 | 13 | 130 | 12.9 | 0.0 | 0.00 | 0.00 | 0.00 | 63 | 1022.0 |
| 20260507014802 | 13 | 130 | 12.9 | 0.0 | 0.00 | 0.00 | 0.00 | 63 | 1022.0 |
| 20260507013801 | 13 | 130 | 12.9 | 0.0 | 0.00 | 0.00 | 0.00 | 63 | 1021.0 |
| 20260507012801 | 13 | 130 | 12.9 | 0.0 | 0.00 | 0.00 | 0.00 | 63 | 1020.0 |
| 20260507011800 | 13 | 130 | 12.9 | 0.0 | 0.00 | 0.00 | 0.00 | 63 | 1020.0 |
| 20260507010759 | 13 | 130 | 12.9 | 0.0 | 0.00 | 0.00 | 0.00 | 63 | 1020.0 |
| 20260507005759 | 15 | 120 | 8.0 | 0.0 | 0.00 | 0.00 | 0.00 | 51 | 1021.0 |
| 20260507004758 | 15 | 120 | 8.0 | 0.0 | 0.00 | 0.00 | 0.00 | 51 | 1021.0 |
| 20260507003758 | 15 | 120 | 8.0 | 0.0 | 0.00 | 0.00 | 0.00 | 51 | 1020.0 |
| 20260507002757 | 15 | 120 | 8.0 | 0.0 | 0.00 | 0.00 | 0.00 | 51 | 1018.0 |
| 20260507001757 | 15 | 120 | 8.0 | 0.0 | 0.00 | 0.00 | 0.00 | 51 | 1018.0 |
| 20260507000756 | 15 | 120 | 8.0 | 0.0 | 0.00 | 0.00 | 0.00 | 51 | 1018.0 |
| 20260506235755 | 16 | 130 | 14.5 | 0.0 | 0.00 | 0.00 | 0.00 | 48 | 1019.0 |
| 20260506234755 | 16 | 130 | 14.5 | 0.0 | 0.00 | 0.00 | 0.00 | 48 | 1019.0 |
| 20260506233754 | 16 | 130 | 14.5 | 0.0 | 0.00 | 0.00 | 0.00 | 48 | 1018.0 |
| 20260506232754 | 14 | 138 | 6.4 | 8.0 | 0.00 | 0.00 | 0.00 | 85 | 1017.0 |
| 20260506231753 | 14 | 138 | 6.4 | 8.0 | 0.00 | 0.00 | 0.00 | 85 | 1017.0 |
| 20260506230752 | 14 | 138 | 6.4 | 8.0 | 0.00 | 0.00 | 0.00 | 85 | 1017.0 |
| 20260506225752 | 14 | 138 | 6.4 | 8.0 | 0.00 | 0.00 | 0.00 | 85 | 1017.0 |
| 20260506224751 | 14 | 138 | 6.4 | 8.0 | 0.00 | 0.00 | 0.00 | 85 | 1017.0 |
| 20260506223751 | 14 | 138 | 6.4 | 8.0 | 0.00 | 0.00 | 0.00 | 85 | 1016.0 |
| 20260506222750 | 16 | 151 | 8.0 | 12.9 | 0.00 | 0.00 | 0.00 | 85 | 1015.0 |
| 20260506221749 | 15 | 151 | 9.7 | 12.9 | 0.00 | 0.00 | 0.00 | 85 | 1015.0 |
| 20260506220748 | 16 | 151 | 8.0 | 12.9 | 0.00 | 0.00 | 0.00 | 85 | 1015.0 |
| 20260506215748 | 15 | 151 | 9.7 | 12.9 | 0.00 | 0.00 | 0.00 | 85 | 1015.0 |
| 20260506214747 | 16 | 151 | 8.0 | 12.9 | 0.00 | 0.00 | 0.00 | 85 | 1015.0 |
| 20260506213746 | 15 | 151 | 9.7 | 12.9 | 0.00 | 0.00 | 0.00 | 85 | 1015.0 |
| 20260506212746 | 16 | 153 | 8.0 | 11.3 | 0.00 | 0.00 | 0.00 | 85 | 1014.0 |
| 20260506211745 | 16 | 153 | 8.0 | 11.3 | 0.00 | 0.00 | 0.00 | 85 | 1014.0 |
| 20260506210744 | 16 | 153 | 8.0 | 11.3 | 0.00 | 0.00 | 0.00 | 85 | 1014.0 |
| 20260506205744 | 15 | 153 | 9.7 | 11.3 | 0.00 | 0.00 | 0.00 | 85 | 1014.0 |
| 20260506204743 | 17 | 159 | 8.0 | 12.9 | 0.00 | 0.00 | 0.00 | 85 | 1014.0 |
| 20260506203743 | 16 | 159 | 8.0 | 12.9 | 0.00 | 0.00 | 0.00 | 85 | 1014.0 |
| 20260506202742 | 15 | 159 | 9.7 | 12.9 | 0.00 | 0.00 | 0.00 | 85 | 1014.0 |
| 20260506201742 | 16 | 159 | 8.0 | 12.9 | 0.00 | 0.00 | 0.00 | 84 | 1014.0 |
| 20260506200741 | 16 | 159 | 8.0 | 12.9 | 0.00 | 0.00 | 0.00 | 84 | 1014.0 |
| 20260506195741 | 15 | 159 | 9.7 | 12.9 | 0.00 | 0.00 | 0.00 | 84 | 1014.0 |
| 20260506194740 | 17 | 159 | 8.0 | 12.9 | 0.00 | 0.00 | 0.00 | 79 | 1014.0 |
| 20260506193739 | 16 | 159 | 9.7 | 12.9 | 0.00 | 0.00 | 0.00 | 80 | 1014.0 |
| 20260506192739 | 17 | 120 | 19.3 | 0.0 | 0.00 | 0.00 | 0.00 | 80 | 1015.0 |
| 20260506191738 | 16 | 120 | 17.7 | 40.2 | 0.00 | 0.00 | 0.00 | 89 | 1015.0 |
| 20260506190738 | 15 | 120 | 17.7 | 40.2 | 0.00 | 0.00 | 0.00 | 90 | 1015.0 |
| 20260506185737 | 13 | 120 | 17.7 | 40.2 | 0.00 | 0.00 | 0.00 | 92 | 1015.0 |
| 20260506184737 | 17 | 120 | 17.7 | 40.2 | 0.00 | 0.00 | 0.00 | 92 | 1015.0 |
| 20260506183736 | 15 | 148 | 6.4 | 11.3 | 0.00 | 0.00 | 0.00 | 92 | 1015.0 |
| 20260506182735 | 14 | 148 | 6.4 | 11.3 | 0.00 | 0.00 | 0.00 | 92 | 1017.0 |
| 20260506181735 | 13 | 148 | 6.4 | 11.3 | 0.00 | 0.00 | 0.00 | 92 | 1017.0 |
| 20260506180734 | 16 | 145 | 6.4 | 11.3 | 0.00 | 0.00 | 0.00 | 92 | 1017.0 |
| 20260506175734 | 15 | 145 | 6.4 | 11.3 | 0.00 | 0.00 | 0.00 | 92 | 1017.0 |
| 20260506174733 | 14 | 145 | 6.4 | 11.3 | 0.00 | 0.00 | 0.00 | 92 | 1017.0 |
| 20260506173733 | 13 | 145 | 6.4 | 11.3 | 0.00 | 0.00 | 0.00 | 92 | 1017.0 |
| 20260506172732 | 13 | 141 | 3.2 | 6.4 | 0.00 | 0.00 | 0.00 | 92 | 1019.0 |
| 20260506171732 | 13 | 141 | 3.2 | 6.4 | 0.00 | 0.00 | 0.00 | 92 | 1019.0 |
| 20260506170731 | 13 | 141 | 3.2 | 6.4 | 0.00 | 0.00 | 0.00 | 92 | 1019.0 |
| 20260506165730 | 13 | 141 | 3.2 | 6.4 | 0.00 | 0.00 | 0.00 | 92 | 1019.0 |
| 20260506164730 | 13 | 141 | 3.2 | 6.4 | 0.00 | 0.00 | 0.00 | 92 | 1019.0 |
| 20260506163729 | 13 | 141 | 3.2 | 6.4 | 0.00 | 0.00 | 0.00 | 92 | 1019.0 |
| 20260506162729 | 14 | 101 | 1.6 | 6.4 | 0.00 | 0.00 | 0.00 | 92 | 1019.0 |
| 20260506161728 | 13 | 101 | 3.2 | 6.4 | 0.00 | 0.00 | 0.00 | 92 | 1019.0 |
| 20260506160727 | 14 | 101 | 1.6 | 6.4 | 0.00 | 0.00 | 0.00 | 92 | 1019.0 |
| 20260506155727 | 13 | 101 | 3.2 | 6.4 | 0.00 | 0.00 | 0.00 | 92 | 1020.0 |
| 20260506154726 | 14 | 101 | 1.6 | 6.4 | 0.00 | 0.00 | 0.00 | 92 | 1020.0 |
| 20260506153726 | 13 | 101 | 3.2 | 6.4 | 0.00 | 0.00 | 0.00 | 92 | 1020.0 |
| 20260506152725 | 14 | 115 | 1.6 | 4.8 | 0.00 | 0.00 | 0.00 | 92 | 1019.0 |
| 20260506151725 | 13 | 115 | 1.6 | 4.8 | 0.00 | 0.00 | 0.00 | 92 | 1019.0 |
| 20260506150724 | 14 | 90 | 8.0 | 0.0 | 0.00 | 0.00 | 0.00 | 92 | 1019.0 |